date,time,SUV Intensity [MED/Hr],UV Index,Daily total [MED],Since Last [MED]
16/05/2022,00:08:07,0.000,0.0,0.0,0.0
16/05/2022,00:10:08,0.000,0.0,0.0,0.0
16/05/2022,00:11:07,0.001,0.0,0.0,0.0
16/05/2022,00:12:07,0.001,0.0,0.0,0.0
16/05/2022,00:13:14,-0.001,0.0,0.0,0.0
16/05/2022,00:15:08,0.000,0.0,0.0,0.0
16/05/2022,00:16:15,0.000,0.0,0.0,0.0
16/05/2022,00:18:07,0.000,0.0,0.0,0.0
16/05/2022,00:19:06,0.000,0.0,0.0,0.0
16/05/2022,00:20:07,0.000,0.0,0.0,0.0
16/05/2022,00:22:08,0.000,0.0,0.0,0.0
16/05/2022,00:23:07,-0.001,0.0,0.0,0.0
16/05/2022,00:24:07,0.000,0.0,0.0,0.0
16/05/2022,00:26:08,0.000,0.0,0.0,0.0
16/05/2022,00:27:06,-0.000,0.0,0.0,0.0
16/05/2022,00:28:08,-0.000,0.0,0.0,0.0
16/05/2022,00:29:06,-0.000,0.0,0.0,0.0
16/05/2022,00:30:08,0.000,0.0,0.0,0.0
16/05/2022,00:31:06,-0.000,0.0,0.0,0.0
16/05/2022,00:32:07,0.000,0.0,0.0,0.0
16/05/2022,00:33:06,0.000,0.0,0.0,0.0
16/05/2022,00:34:08,-0.001,0.0,0.0,0.0
16/05/2022,00:35:15,-0.000,0.0,0.0,0.0
16/05/2022,00:37:07,-0.001,0.0,0.0,0.0
16/05/2022,00:38:15,0.000,0.0,0.0,0.0
16/05/2022,00:40:07,0.000,0.0,0.0,0.0
16/05/2022,00:42:08,0.000,0.0,0.0,0.0
16/05/2022,00:43:06,-0.001,0.0,0.0,0.0
16/05/2022,00:44:07,-0.000,0.0,0.0,0.0
16/05/2022,00:45:07,0.001,0.0,0.0,0.0
16/05/2022,00:46:06,0.001,0.0,0.0,0.0
16/05/2022,00:47:07,-0.001,0.0,0.0,0.0
16/05/2022,00:48:14,-0.001,0.0,0.0,0.0
16/05/2022,00:50:08,-0.001,0.0,0.0,0.0
16/05/2022,00:51:15,0.000,0.0,0.0,0.0
16/05/2022,00:53:08,-0.001,0.0,0.0,0.0
16/05/2022,00:54:06,0.001,0.0,0.0,0.0
16/05/2022,00:55:07,-0.001,0.0,0.0,0.0
16/05/2022,00:56:07,-0.000,0.0,0.0,0.0
16/05/2022,00:58:08,-0.000,0.0,0.0,0.0
16/05/2022,00:59:06,0.000,0.0,0.0,0.0
16/05/2022,01:00:07,-0.000,0.0,0.0,0.0
16/05/2022,01:01:16,0.000,0.0,0.0,0.0
16/05/2022,01:03:08,0.000,0.0,0.0,0.0
16/05/2022,01:04:07,0.001,0.0,0.0,0.0
16/05/2022,01:05:08,0.000,0.0,0.0,0.0
16/05/2022,01:06:07,0.001,0.0,0.0,0.0
16/05/2022,01:07:07,-0.000,0.0,0.0,0.0
16/05/2022,01:09:08,-0.000,0.0,0.0,0.0
16/05/2022,01:11:08,0.001,0.0,0.0,0.0
16/05/2022,01:13:16,-0.000,0.0,0.0,0.0
16/05/2022,01:15:09,-0.001,0.0,0.0,0.0
16/05/2022,01:17:16,0.000,0.0,0.0,0.0
16/05/2022,01:19:08,0.001,0.0,0.0,0.0
16/05/2022,01:21:08,-0.000,0.0,0.0,0.0
16/05/2022,01:23:08,-0.000,0.0,0.0,0.0
16/05/2022,01:25:08,0.000,0.0,0.0,0.0
16/05/2022,01:26:16,0.000,0.0,0.0,0.0
16/05/2022,01:28:08,0.001,0.0,0.0,0.0
16/05/2022,01:29:07,0.001,0.0,0.0,0.0
16/05/2022,01:30:07,-0.000,0.0,0.0,0.0
16/05/2022,01:31:08,-0.000,0.0,0.0,0.0
16/05/2022,01:32:06,-0.000,0.0,0.0,0.0
16/05/2022,01:33:07,0.000,0.0,0.0,0.0
16/05/2022,01:34:06,-0.001,0.0,0.0,0.0
16/05/2022,01:35:07,-0.000,0.0,0.0,0.0
16/05/2022,01:36:16,0.000,0.0,0.0,0.0
16/05/2022,01:38:07,-0.001,0.0,0.0,0.0
16/05/2022,01:39:06,-0.000,0.0,0.0,0.0
16/05/2022,01:40:07,-0.001,0.0,0.0,0.0
16/05/2022,01:41:08,-0.000,0.0,0.0,0.0
16/05/2022,01:42:06,0.000,0.0,0.0,0.0
16/05/2022,01:44:08,0.000,0.0,0.0,0.0
16/05/2022,01:45:07,-0.000,0.0,0.0,0.0
16/05/2022,01:46:08,0.001,0.0,0.0,0.0
16/05/2022,01:47:06,-0.001,0.0,0.0,0.0
16/05/2022,01:48:07,-0.000,0.0,0.0,0.0
16/05/2022,01:49:07,-0.001,0.0,0.0,0.0
16/05/2022,01:50:08,-0.000,0.0,0.0,0.0
16/05/2022,01:51:06,-0.000,0.0,0.0,0.0
16/05/2022,01:52:07,0.000,0.0,0.0,0.0
16/05/2022,01:53:06,0.000,0.0,0.0,0.0
16/05/2022,01:54:07,0.001,0.0,0.0,0.0
16/05/2022,01:56:08,0.001,0.0,0.0,0.0
16/05/2022,01:57:07,0.001,0.0,0.0,0.0
16/05/2022,01:59:08,-0.001,0.0,0.0,0.0
16/05/2022,02:00:07,-0.000,0.0,0.0,0.0
16/05/2022,02:01:08,-0.001,0.0,0.0,0.0
16/05/2022,02:02:07,-0.000,0.0,0.0,0.0
16/05/2022,02:03:07,-0.000,0.0,0.0,0.0
16/05/2022,02:04:06,-0.000,0.0,0.0,0.0
16/05/2022,02:05:07,-0.000,0.0,0.0,0.0
16/05/2022,02:06:06,0.001,0.0,0.0,0.0
16/05/2022,02:07:15,-0.000,0.0,0.0,0.0
16/05/2022,02:09:08,-0.001,0.0,0.0,0.0
16/05/2022,02:11:08,-0.001,0.0,0.0,0.0
16/05/2022,02:12:07,0.000,0.0,0.0,0.0
16/05/2022,02:13:07,0.001,0.0,0.0,0.0
16/05/2022,02:15:17,-0.000,0.0,0.0,0.0
16/05/2022,02:17:08,-0.000,0.0,0.0,0.0
16/05/2022,02:18:06,-0.001,0.0,0.0,0.0
16/05/2022,02:19:08,-0.000,0.0,0.0,0.0
16/05/2022,02:20:08,-0.001,0.0,0.0,0.0
16/05/2022,02:21:07,-0.001,0.0,0.0,0.0
16/05/2022,02:22:06,-0.000,0.0,0.0,0.0
16/05/2022,02:22:59,-0.000,0.0,0.0,0.0
16/05/2022,02:24:08,-0.000,0.0,0.0,0.0
16/05/2022,02:25:06,0.000,0.0,0.0,0.0
16/05/2022,02:26:07,0.001,0.0,0.0,0.0
16/05/2022,02:27:07,-0.001,0.0,0.0,0.0
16/05/2022,02:28:07,-0.000,0.0,0.0,0.0
16/05/2022,02:29:06,-0.001,0.0,0.0,0.0
16/05/2022,02:31:16,-0.001,0.0,0.0,0.0
16/05/2022,02:33:08,-0.000,0.0,0.0,0.0
16/05/2022,02:34:06,-0.001,0.0,0.0,0.0
16/05/2022,02:35:07,0.000,0.0,0.0,0.0
16/05/2022,02:36:08,0.001,0.0,0.0,0.0
16/05/2022,02:37:14,0.001,0.0,0.0,0.0
16/05/2022,02:39:08,-0.000,0.0,0.0,0.0
16/05/2022,02:40:14,0.000,0.0,0.0,0.0
16/05/2022,02:42:08,0.001,0.0,0.0,0.0
16/05/2022,02:43:07,0.001,0.0,0.0,0.0
16/05/2022,02:44:07,-0.001,0.0,0.0,0.0
16/05/2022,02:45:06,0.001,0.0,0.0,0.0
16/05/2022,02:47:08,0.000,0.0,0.0,0.0
16/05/2022,02:48:07,-0.000,0.0,0.0,0.0
16/05/2022,02:49:07,0.001,0.0,0.0,0.0
16/05/2022,02:50:06,-0.000,0.0,0.0,0.0
16/05/2022,02:51:08,0.000,0.0,0.0,0.0
16/05/2022,02:52:06,-0.000,0.0,0.0,0.0
16/05/2022,02:53:15,-0.001,0.0,0.0,0.0
16/05/2022,02:55:08,0.001,0.0,0.0,0.0
16/05/2022,02:56:07,0.000,0.0,0.0,0.0
16/05/2022,02:57:07,-0.001,0.0,0.0,0.0
16/05/2022,02:58:07,0.000,0.0,0.0,0.0
16/05/2022,02:59:08,0.000,0.0,0.0,0.0
16/05/2022,03:00:07,0.001,0.0,0.0,0.0
16/05/2022,03:02:08,-0.000,0.0,0.0,0.0
16/05/2022,03:03:06,0.000,0.0,0.0,0.0
16/05/2022,03:04:08,0.000,0.0,0.0,0.0
16/05/2022,03:05:07,0.000,0.0,0.0,0.0
16/05/2022,03:06:07,-0.001,0.0,0.0,0.0
16/05/2022,03:07:08,0.001,0.0,0.0,0.0
16/05/2022,03:08:06,0.000,0.0,0.0,0.0
16/05/2022,03:09:07,0.000,0.0,0.0,0.0
16/05/2022,03:10:06,0.000,0.0,0.0,0.0
16/05/2022,03:11:06,0.001,0.0,0.0,0.0
16/05/2022,03:12:07,0.000,0.0,0.0,0.0
16/05/2022,03:13:07,0.000,0.0,0.0,0.0
16/05/2022,03:14:07,-0.000,0.0,0.0,0.0
16/05/2022,03:15:07,0.000,0.0,0.0,0.0
16/05/2022,03:17:16,-0.000,0.0,0.0,0.0
16/05/2022,03:19:08,0.000,0.0,0.0,0.0
16/05/2022,03:20:07,0.001,0.0,0.0,0.0
16/05/2022,03:21:08,0.000,0.0,0.0,0.0
16/05/2022,03:22:06,0.000,0.0,0.0,0.0
16/05/2022,03:23:07,0.000,0.0,0.0,0.0
16/05/2022,03:24:07,0.000,0.0,0.0,0.0
16/05/2022,03:25:08,-0.000,0.0,0.0,0.0
16/05/2022,03:26:06,-0.000,0.0,0.0,0.0
16/05/2022,03:27:08,-0.000,0.0,0.0,0.0
16/05/2022,03:29:08,0.001,0.0,0.0,0.0
16/05/2022,03:30:07,-0.000,0.0,0.0,0.0
16/05/2022,03:31:16,0.000,0.0,0.0,0.0
16/05/2022,03:33:08,-0.000,0.0,0.0,0.0
16/05/2022,03:34:08,-0.000,0.0,0.0,0.0
16/05/2022,03:35:07,-0.000,0.0,0.0,0.0
16/05/2022,03:36:08,-0.001,0.0,0.0,0.0
16/05/2022,03:37:06,-0.000,0.0,0.0,0.0
16/05/2022,03:38:08,0.000,0.0,0.0,0.0
16/05/2022,03:39:08,0.001,0.0,0.0,0.0
16/05/2022,03:40:06,0.000,0.0,0.0,0.0
16/05/2022,03:41:15,-0.000,0.0,0.0,0.0
16/05/2022,03:43:08,-0.001,0.0,0.0,0.0
16/05/2022,03:45:09,0.000,0.0,0.0,0.0
16/05/2022,03:47:09,0.000,0.0,0.0,0.0
16/05/2022,03:49:08,-0.000,0.0,0.0,0.0
16/05/2022,03:50:06,-0.000,0.0,0.0,0.0
16/05/2022,03:51:15,-0.000,0.0,0.0,0.0
16/05/2022,03:53:08,0.000,0.0,0.0,0.0
16/05/2022,03:54:15,0.001,0.0,0.0,0.0
16/05/2022,03:56:08,-0.000,0.0,0.0,0.0
16/05/2022,03:57:15,0.001,0.0,0.0,0.0
16/05/2022,03:59:08,0.001,0.0,0.0,0.0
16/05/2022,04:01:08,0.000,0.0,0.0,0.0
16/05/2022,04:02:07,0.001,0.0,0.0,0.0
16/05/2022,04:03:08,-0.001,0.0,0.0,0.0
16/05/2022,04:05:17,0.000,0.0,0.0,0.0
16/05/2022,04:07:08,0.000,0.0,0.0,0.0
16/05/2022,04:08:07,-0.001,0.0,0.0,0.0
16/05/2022,04:09:20,0.000,0.0,0.0,0.0
16/05/2022,04:11:08,0.000,0.0,0.0,0.0
16/05/2022,04:13:08,0.000,0.0,0.0,0.0
16/05/2022,04:14:15,0.000,0.0,0.0,0.0
16/05/2022,04:16:08,0.000,0.0,0.0,0.0
16/05/2022,04:17:07,0.000,0.0,0.0,0.0
16/05/2022,04:18:08,0.000,0.0,0.0,0.0
16/05/2022,04:19:07,0.000,0.0,0.0,0.0
16/05/2022,04:21:08,0.000,0.0,0.0,0.0
16/05/2022,04:22:07,0.000,0.0,0.0,0.0
16/05/2022,04:23:07,0.001,0.0,0.0,0.0
16/05/2022,04:24:08,0.000,0.0,0.0,0.0
16/05/2022,04:25:07,-0.000,0.0,0.0,0.0
16/05/2022,04:26:08,0.000,0.0,0.0,0.0
16/05/2022,04:27:06,0.001,0.0,0.0,0.0
16/05/2022,04:28:08,0.001,0.0,0.0,0.0
16/05/2022,04:29:10,0.000,0.0,0.0,0.0
16/05/2022,04:31:19,0.001,0.0,0.0,0.0
16/05/2022,04:33:08,0.001,0.0,0.0,0.0
16/05/2022,04:34:07,0.000,0.0,0.0,0.0
16/05/2022,04:35:07,0.001,0.0,0.0,0.0
16/05/2022,04:37:09,0.002,0.0,0.0,0.0
16/05/2022,04:38:07,0.001,0.0,0.0,0.0
16/05/2022,04:39:08,0.002,0.0,0.0,0.0
16/05/2022,04:39:58,0.003,0.0,0.0,0.0
16/05/2022,04:41:09,0.003,0.0,0.0,0.0
16/05/2022,04:42:16,0.004,0.0,0.0,0.0
16/05/2022,04:44:16,0.005,0.0,0.0,0.0
16/05/2022,04:46:08,0.005,0.0,0.0,0.0
16/05/2022,04:47:00,0.006,0.0,0.0,0.0
16/05/2022,04:48:08,0.006,0.0,0.0,0.0
16/05/2022,04:50:08,0.006,0.0,0.0,0.0
16/05/2022,04:51:07,0.006,0.0,0.0,0.0
16/05/2022,04:53:16,0.006,0.0,0.0,0.0
16/05/2022,04:55:08,0.006,0.0,0.0,0.0
16/05/2022,04:56:07,0.007,0.0,0.0,0.0
16/05/2022,04:57:07,0.006,0.0,0.0,0.0
16/05/2022,04:58:08,0.007,0.0,0.001,0.001
16/05/2022,04:59:10,0.009,0.0,0.001,0.0
16/05/2022,05:01:08,0.010,0.0,0.001,0.0
16/05/2022,05:02:16,0.008,0.0,0.001,0.0
16/05/2022,05:04:15,0.010,0.0,0.001,0.0
16/05/2022,05:06:16,0.010,0.0,0.002,0.001
16/05/2022,05:08:08,0.011,0.0,0.002,0.0
16/05/2022,05:09:07,0.013,0.0,0.002,0.0
16/05/2022,05:10:07,0.017,0.0,0.003,0.001
16/05/2022,05:11:06,0.018,0.0,0.003,0.0
16/05/2022,05:12:41,0.019,0.0,0.003,0.0
16/05/2022,05:14:08,0.019,0.0,0.004,0.001
16/05/2022,05:15:07,0.021,0.0,0.004,0.0
16/05/2022,05:16:07,0.023,0.0,0.004,0.0
16/05/2022,05:17:08,0.024,0.0,0.005,0.001
16/05/2022,05:18:08,0.021,0.0,0.005,0.0
16/05/2022,05:20:08,0.018,0.0,0.006,0.001
16/05/2022,05:21:07,0.020,0.0,0.006,0.0
16/05/2022,05:22:15,0.018,0.0,0.007,0.001
16/05/2022,05:24:08,0.019,0.0,0.007,0.0
16/05/2022,05:25:06,0.018,0.0,0.007,0.0
16/05/2022,05:26:07,0.015,0.0,0.008,0.001
16/05/2022,05:27:06,0.014,0.0,0.008,0.0
16/05/2022,05:28:07,0.015,0.0,0.008,0.0
16/05/2022,05:29:06,0.017,0.0,0.008,0.0
16/05/2022,05:30:07,0.019,0.0,0.009,0.001
16/05/2022,05:31:08,0.018,0.0,0.009,0.0
16/05/2022,05:32:07,0.019,0.0,0.009,0.0
16/05/2022,05:33:08,0.022,0.0,0.01,0.001
16/05/2022,05:34:07,0.025,0.0,0.01,0.0
16/05/2022,05:35:15,0.030,0.0,0.011,0.001
16/05/2022,05:37:09,0.032,0.0,0.012,0.001
16/05/2022,05:38:08,0.033,0.0,0.012,0.0
16/05/2022,05:40:08,0.041,0.0,0.013,0.001
16/05/2022,05:41:06,0.040,0.0,0.014,0.001
16/05/2022,05:42:08,0.031,0.0,0.015,0.001
16/05/2022,05:43:07,0.030,0.0,0.015,0.0
16/05/2022,05:44:07,0.028,0.0,0.016,0.001
16/05/2022,05:45:07,0.025,0.0,0.016,0.0
16/05/2022,05:46:08,0.028,0.0,0.017,0.001
16/05/2022,05:47:07,0.028,0.0,0.017,0.0
16/05/2022,05:48:14,0.024,0.0,0.017,0.0
16/05/2022,05:50:08,0.023,0.0,0.018,0.001
16/05/2022,05:52:08,0.025,0.0,0.019,0.001
16/05/2022,05:53:07,0.025,0.0,0.019,0.0
16/05/2022,05:54:15,0.026,0.0,0.02,0.001
16/05/2022,05:56:08,0.026,0.0,0.021,0.001
16/05/2022,05:57:07,0.025,0.0,0.021,0.0
16/05/2022,05:58:16,0.024,0.0,0.022,0.001
16/05/2022,06:00:08,0.024,0.0,0.022,0.0
16/05/2022,06:01:07,0.023,0.0,0.023,0.001
16/05/2022,06:02:08,0.022,0.0,0.023,0.0
16/05/2022,06:03:07,0.019,0.0,0.023,0.0
16/05/2022,06:05:16,0.021,0.0,0.024,0.001
16/05/2022,06:07:08,0.026,0.0,0.025,0.001
16/05/2022,06:08:06,0.028,0.0,0.025,0.0
16/05/2022,06:09:08,0.030,0.0,0.026,0.001
16/05/2022,06:10:06,0.032,0.0,0.026,0.0
16/05/2022,06:12:08,0.039,0.0,0.027,0.001
16/05/2022,06:13:07,0.044,0.0,0.028,0.001
16/05/2022,06:15:17,0.043,0.0,0.03,0.002
16/05/2022,06:17:17,0.036,0.0,0.031,0.001
16/05/2022,06:19:09,0.034,0.0,0.032,0.001
16/05/2022,06:21:08,0.043,0.0,0.033,0.001
16/05/2022,06:23:08,0.047,0.0,0.035,0.002
16/05/2022,06:24:07,0.042,0.0,0.036,0.001
16/05/2022,06:25:08,0.043,0.0,0.037,0.001
16/05/2022,06:27:17,0.045,0.0,0.038,0.001
16/05/2022,06:29:08,0.038,0.0,0.039,0.001
16/05/2022,06:30:07,0.055,0.0,0.04,0.001
16/05/2022,06:31:08,0.070,0.0,0.041,0.001
16/05/2022,06:32:06,0.070,0.0,0.042,0.001
16/05/2022,06:33:16,0.090,0.0,0.044,0.002
16/05/2022,06:35:09,0.090,0.0,0.047,0.003
16/05/2022,06:36:07,0.084,0.0,0.048,0.001
16/05/2022,06:37:07,0.076,0.0,0.05,0.002
16/05/2022,06:39:09,0.063,0.0,0.052,0.002
16/05/2022,06:40:07,0.066,0.0,0.053,0.001
16/05/2022,06:41:07,0.076,0.0,0.054,0.001
16/05/2022,06:43:09,0.078,0.0,0.056,0.002
16/05/2022,06:44:07,0.088,0.0,0.058,0.002
16/05/2022,06:45:08,0.082,0.0,0.059,0.001
16/05/2022,06:46:07,0.076,0.0,0.061,0.002
16/05/2022,06:47:08,0.066,0.0,0.062,0.001
16/05/2022,06:48:06,0.065,0.0,0.063,0.001
16/05/2022,06:49:16,0.065,0.0,0.064,0.001
16/05/2022,06:51:08,0.077,0.0,0.066,0.002
16/05/2022,06:52:08,0.069,0.0,0.068,0.002
16/05/2022,06:54:09,0.066,0.0,0.07,0.002
16/05/2022,06:55:07,0.078,0.0,0.071,0.001
16/05/2022,06:56:08,0.078,0.0,0.072,0.001
16/05/2022,06:57:08,0.069,0.0,0.073,0.001
16/05/2022,06:59:08,0.067,0.0,0.076,0.003
16/05/2022,07:00:07,0.077,0.0,0.077,0.001
16/05/2022,07:01:08,0.093,0.0,0.078,0.001
16/05/2022,07:02:07,0.106,0.0,0.08,0.002
16/05/2022,07:03:08,0.098,0.0,0.082,0.002
16/05/2022,07:04:07,0.092,0.0,0.083,0.001
16/05/2022,07:05:08,0.080,0.0,0.085,0.002
16/05/2022,07:06:07,0.068,0.0,0.086,0.001
16/05/2022,07:07:07,0.052,0.0,0.087,0.001
16/05/2022,07:08:06,0.051,0.0,0.088,0.001
16/05/2022,07:10:09,0.054,0.0,0.09,0.002
16/05/2022,07:11:10,0.053,0.0,0.091,0.001
16/05/2022,07:13:08,0.070,0.0,0.093,0.002
16/05/2022,07:15:08,0.096,0.0,0.095,0.002
16/05/2022,07:16:09,0.093,0.0,0.097,0.002
16/05/2022,07:17:07,0.085,0.0,0.098,0.001
16/05/2022,07:18:08,0.098,0.0,0.1,0.002
16/05/2022,07:19:07,0.099,0.0,0.102,0.002
16/05/2022,07:20:08,0.113,0.0,0.103,0.001
16/05/2022,07:21:07,0.131,0.0,0.105,0.002
16/05/2022,07:22:08,0.121,0.0,0.108,0.003
16/05/2022,07:23:07,0.137,0.0,0.11,0.002
16/05/2022,07:25:09,0.112,0.0,0.114,0.004
16/05/2022,07:26:07,0.143,0.0,0.116,0.002
16/05/2022,07:27:08,0.168,0.0,0.119,0.003
16/05/2022,07:28:08,0.159,0.0,0.121,0.002
16/05/2022,07:29:07,0.145,0.0,0.124,0.003
16/05/2022,07:31:09,0.108,0.0,0.128,0.004
16/05/2022,07:32:07,0.107,0.0,0.13,0.002
16/05/2022,07:33:08,0.124,0.0,0.132,0.002
16/05/2022,07:34:07,0.127,0.0,0.134,0.002
16/05/2022,07:35:08,0.148,0.0,0.136,0.002
16/05/2022,07:36:06,0.147,0.0,0.139,0.003
16/05/2022,07:37:08,0.184,0.0,0.141,0.002
16/05/2022,07:38:08,0.210,0.0,0.145,0.004
16/05/2022,07:40:09,0.230,1.0,0.152,0.007
16/05/2022,07:41:15,0.207,0.0,0.156,0.004
16/05/2022,07:43:09,0.200,0.0,0.162,0.006
16/05/2022,07:44:07,0.169,0.0,0.165,0.003
16/05/2022,07:45:08,0.164,0.0,0.168,0.003
16/05/2022,07:47:09,0.178,0.0,0.173,0.005
16/05/2022,07:48:07,0.209,0.0,0.177,0.004
16/05/2022,07:49:07,0.183,0.0,0.18,0.003
16/05/2022,07:50:16,0.193,0.0,0.184,0.004
16/05/2022,07:52:09,0.208,0.0,0.189,0.005
16/05/2022,07:53:07,0.239,1.0,0.193,0.004
16/05/2022,07:54:08,0.260,1.0,0.197,0.004
16/05/2022,07:56:09,0.306,1.0,0.206,0.009
16/05/2022,07:57:08,0.295,1.0,0.211,0.005
16/05/2022,07:58:08,0.295,1.0,0.216,0.005
16/05/2022,07:59:07,0.331,1.0,0.221,0.005
16/05/2022,08:00:16,0.358,1.0,0.228,0.007
16/05/2022,08:02:08,0.324,1.0,0.239,0.011
16/05/2022,08:03:07,0.314,1.0,0.244,0.005
16/05/2022,08:04:07,0.305,1.0,0.249,0.005
16/05/2022,08:05:08,0.300,1.0,0.254,0.005
16/05/2022,08:06:07,0.283,1.0,0.259,0.005
16/05/2022,08:07:08,0.284,1.0,0.264,0.005
16/05/2022,08:08:07,0.285,1.0,0.268,0.004
16/05/2022,08:09:08,0.287,1.0,0.273,0.005
16/05/2022,08:10:15,0.287,1.0,0.279,0.006
16/05/2022,08:12:09,0.280,1.0,0.287,0.008
16/05/2022,08:14:09,0.290,1.0,0.297,0.01
16/05/2022,08:16:09,0.275,1.0,0.307,0.01
16/05/2022,08:18:08,0.333,1.0,0.317,0.01
16/05/2022,08:19:07,0.356,1.0,0.322,0.005
16/05/2022,08:21:09,0.390,1.0,0.335,0.013
16/05/2022,08:22:08,0.407,1.0,0.342,0.007
16/05/2022,08:23:08,0.456,1.0,0.349,0.007
16/05/2022,08:24:06,0.495,1.0,0.357,0.008
16/05/2022,08:25:08,0.746,2.0,0.367,0.01
16/05/2022,08:26:15,0.614,1.0,0.378,0.011
16/05/2022,08:28:09,0.713,2.0,0.399,0.021
16/05/2022,08:30:08,0.693,2.0,0.424,0.025
16/05/2022,08:31:07,0.792,2.0,0.438,0.014
16/05/2022,08:32:08,0.948,2.0,0.453,0.015
16/05/2022,08:34:09,0.738,2.0,0.481,0.028
16/05/2022,08:35:07,0.671,2.0,0.492,0.011
16/05/2022,08:36:16,0.597,1.0,0.504,0.012
16/05/2022,08:38:08,0.526,1.0,0.521,0.017
16/05/2022,08:39:06,0.502,1.0,0.529,0.008
16/05/2022,08:40:07,0.516,1.0,0.538,0.009
16/05/2022,08:41:08,0.525,1.0,0.547,0.009
16/05/2022,08:42:07,0.536,1.0,0.555,0.008
16/05/2022,08:43:07,0.532,1.0,0.564,0.009
16/05/2022,08:44:08,0.544,1.0,0.574,0.01
16/05/2022,08:45:07,0.520,1.0,0.582,0.008
16/05/2022,08:46:08,0.537,1.0,0.591,0.009
16/05/2022,08:47:07,0.559,1.0,0.6,0.009
16/05/2022,08:48:08,0.648,1.0,0.611,0.011
16/05/2022,08:50:09,0.668,2.0,0.634,0.023
16/05/2022,08:51:06,0.880,2.0,0.646,0.012
16/05/2022,08:52:16,0.935,2.0,0.662,0.016
16/05/2022,08:54:09,0.737,2.0,0.688,0.026
16/05/2022,08:55:07,0.675,2.0,0.699,0.011
16/05/2022,08:56:08,0.726,2.0,0.711,0.012
16/05/2022,08:57:06,0.761,2.0,0.724,0.013
16/05/2022,08:58:08,0.749,2.0,0.737,0.013
16/05/2022,09:00:09,0.672,2.0,0.761,0.024
16/05/2022,09:01:08,0.620,1.0,0.771,0.01
16/05/2022,09:02:08,0.618,1.0,0.781,0.01
16/05/2022,09:03:07,0.559,1.0,0.791,0.01
16/05/2022,09:04:17,0.597,1.0,0.802,0.011
16/05/2022,09:06:08,0.496,1.0,0.819,0.017
16/05/2022,09:08:17,0.308,1.0,0.834,0.015
16/05/2022,09:10:09,0.308,1.0,0.843,0.009
16/05/2022,09:11:07,0.405,1.0,0.849,0.006
16/05/2022,09:12:08,0.498,1.0,0.857,0.008
16/05/2022,09:13:07,0.519,1.0,0.865,0.008
16/05/2022,09:14:08,0.527,1.0,0.874,0.009
16/05/2022,09:16:09,0.653,2.0,0.893,0.019
16/05/2022,09:18:09,0.704,2.0,0.917,0.024
16/05/2022,09:19:08,0.604,1.0,0.928,0.011
16/05/2022,09:20:16,0.489,1.0,0.939,0.011
16/05/2022,09:22:09,0.317,1.0,0.951,0.012
16/05/2022,09:23:08,0.229,1.0,0.956,0.005
16/05/2022,09:23:59,0.176,0.0,0.959,0.003
16/05/2022,09:25:08,0.133,0.0,0.961,0.002
16/05/2022,09:26:07,0.118,0.0,0.964,0.003
16/05/2022,09:27:08,0.117,0.0,0.965,0.001
16/05/2022,09:28:07,0.133,0.0,0.968,0.003
16/05/2022,09:29:10,0.176,0.0,0.97,0.002
16/05/2022,09:31:17,0.419,1.0,0.98,0.01
16/05/2022,09:33:09,0.788,2.0,1.0,0.02
16/05/2022,09:34:08,1.191,3.0,1.015,0.015
16/05/2022,09:35:08,1.236,3.0,1.035,0.02
16/05/2022,09:36:07,1.145,3.0,1.055,0.02
16/05/2022,09:38:08,0.697,2.0,1.086,0.031
16/05/2022,09:39:07,0.546,1.0,1.095,0.009
16/05/2022,09:40:08,0.484,1.0,1.104,0.009
16/05/2022,09:41:07,0.531,1.0,1.112,0.008
16/05/2022,09:42:08,0.977,2.0,1.123,0.011
16/05/2022,09:43:15,1.105,3.0,1.142,0.019
16/05/2022,09:45:09,1.226,3.0,1.179,0.037
16/05/2022,09:47:09,1.001,2.0,1.214,0.035
16/05/2022,09:48:07,1.032,2.0,1.231,0.017
16/05/2022,09:49:08,1.255,3.0,1.252,0.021
16/05/2022,09:50:07,1.259,3.0,1.272,0.02
16/05/2022,09:51:08,1.263,3.0,1.293,0.021
16/05/2022,09:53:09,1.235,3.0,1.334,0.041
16/05/2022,09:54:07,1.236,3.0,1.354,0.02
16/05/2022,09:55:08,1.194,3.0,1.375,0.021
16/05/2022,09:56:06,1.183,3.0,1.394,0.019
16/05/2022,09:57:08,1.194,3.0,1.415,0.021
16/05/2022,09:58:07,1.197,3.0,1.434,0.019
16/05/2022,09:59:08,1.145,3.0,1.454,0.02
16/05/2022,10:00:07,1.036,2.0,1.471,0.017
16/05/2022,10:01:08,1.186,3.0,1.49,0.019
16/05/2022,10:03:17,1.126,3.0,1.532,0.042
16/05/2022,10:05:08,0.947,2.0,1.565,0.033
16/05/2022,10:06:07,0.839,2.0,1.58,0.015
16/05/2022,10:07:08,0.785,2.0,1.593,0.013
16/05/2022,10:09:08,0.781,2.0,1.619,0.026
16/05/2022,10:10:07,0.728,2.0,1.631,0.012
16/05/2022,10:11:08,0.680,2.0,1.644,0.013
16/05/2022,10:12:07,0.648,1.0,1.654,0.01
16/05/2022,10:13:08,0.682,2.0,1.666,0.012
16/05/2022,10:14:08,0.742,2.0,1.677,0.011
16/05/2022,10:15:27,0.778,2.0,1.694,0.017
16/05/2022,10:17:08,0.864,2.0,1.717,0.023
16/05/2022,10:19:09,1.100,3.0,1.75,0.033
16/05/2022,10:20:08,1.119,3.0,1.768,0.018
16/05/2022,10:21:08,0.923,2.0,1.785,0.017
16/05/2022,10:22:08,0.882,2.0,1.8,0.015
16/05/2022,10:23:07,0.886,2.0,1.815,0.015
16/05/2022,10:25:09,0.861,2.0,1.845,0.03
16/05/2022,10:26:07,0.882,2.0,1.859,0.014
16/05/2022,10:27:25,0.929,2.0,1.878,0.019
16/05/2022,10:29:09,0.904,2.0,1.905,0.027
16/05/2022,10:30:08,0.873,2.0,1.92,0.015
16/05/2022,10:31:09,1.138,3.0,1.935,0.015
16/05/2022,10:32:07,0.665,2.0,1.951,0.016
16/05/2022,10:33:08,0.560,1.0,1.961,0.01
16/05/2022,10:35:09,0.382,1.0,1.977,0.016
16/05/2022,10:36:16,0.308,1.0,1.983,0.006
16/05/2022,10:38:08,0.314,1.0,1.993,0.01
16/05/2022,10:40:09,0.402,1.0,2.005,0.012
16/05/2022,10:41:07,0.450,1.0,2.011,0.006
16/05/2022,10:42:08,0.520,1.0,2.02,0.009
16/05/2022,10:43:15,0.567,1.0,2.03,0.01
16/05/2022,10:45:09,0.696,2.0,2.05,0.02
16/05/2022,10:46:08,0.741,2.0,2.062,0.012
16/05/2022,10:47:08,0.719,2.0,2.074,0.012
16/05/2022,10:48:08,0.672,2.0,2.086,0.012
16/05/2022,10:49:09,0.640,1.0,2.096,0.01
16/05/2022,10:51:09,0.677,2.0,2.118,0.022
16/05/2022,10:52:07,0.757,2.0,2.13,0.012
16/05/2022,10:53:08,1.028,2.0,2.144,0.014
16/05/2022,10:54:06,1.923,4.0,2.172,0.028
16/05/2022,10:56:09,1.538,4.0,2.232,0.06
16/05/2022,10:57:08,2.025,5.0,2.259,0.027
16/05/2022,10:58:08,1.666,4.0,2.287,0.028
16/05/2022,10:59:15,1.898,4.0,2.319,0.032
16/05/2022,11:01:09,1.562,4.0,2.373,0.054
16/05/2022,11:02:07,1.316,3.0,2.398,0.025
16/05/2022,11:03:08,1.114,3.0,2.419,0.021
16/05/2022,11:04:08,1.138,3.0,2.438,0.019
16/05/2022,11:05:07,1.107,3.0,2.456,0.018
16/05/2022,11:06:08,1.203,3.0,2.477,0.021
16/05/2022,11:07:08,1.986,5.0,2.504,0.027
16/05/2022,11:08:07,1.985,5.0,2.537,0.033
16/05/2022,11:09:09,2.006,5.0,2.57,0.033
16/05/2022,11:11:09,1.186,3.0,2.626,0.056
16/05/2022,11:12:20,1.983,5.0,2.657,0.031
16/05/2022,11:14:09,1.271,3.0,2.702,0.045
16/05/2022,11:15:08,1.407,3.0,2.722,0.02
16/05/2022,11:16:08,1.934,4.0,2.752,0.03
16/05/2022,11:17:09,1.838,4.0,2.782,0.03
16/05/2022,11:18:08,1.916,4.0,2.814,0.032
16/05/2022,11:19:08,1.929,4.0,2.846,0.032
16/05/2022,11:20:08,1.943,4.0,2.878,0.032
16/05/2022,11:22:09,1.069,2.0,2.927,0.049
16/05/2022,11:23:08,1.897,4.0,2.947,0.02
16/05/2022,11:24:09,0.893,2.0,2.965,0.018
16/05/2022,11:25:08,0.896,2.0,2.98,0.015
16/05/2022,11:27:09,0.855,2.0,3.012,0.032
16/05/2022,11:28:08,0.810,2.0,3.026,0.014
16/05/2022,11:29:08,0.841,2.0,3.04,0.014
16/05/2022,11:30:16,1.782,4.0,3.063,0.023
16/05/2022,11:32:09,0.857,2.0,3.092,0.029
16/05/2022,11:33:16,1.078,2.0,3.11,0.018
16/05/2022,11:35:09,2.055,5.0,3.169,0.059
16/05/2022,11:37:09,1.633,4.0,3.233,0.064
16/05/2022,11:38:08,2.125,5.0,3.262,0.029
16/05/2022,11:39:08,2.123,5.0,3.295,0.033
16/05/2022,11:40:07,2.067,5.0,3.329,0.034
16/05/2022,11:41:08,2.087,5.0,3.363,0.034
16/05/2022,11:43:09,1.997,5.0,3.433,0.07
16/05/2022,11:44:08,2.093,5.0,3.467,0.034
16/05/2022,11:45:08,2.071,5.0,3.501,0.034
16/05/2022,11:46:17,2.045,5.0,3.54,0.039
16/05/2022,11:48:09,2.011,5.0,3.602,0.062
16/05/2022,11:49:08,1.923,4.0,3.633,0.031
16/05/2022,11:50:08,1.125,3.0,3.654,0.021
16/05/2022,11:51:09,2.062,5.0,3.677,0.023
16/05/2022,11:53:08,0.910,2.0,3.73,0.053
16/05/2022,11:54:07,0.840,2.0,3.744,0.014
16/05/2022,11:55:08,0.811,2.0,3.758,0.014
16/05/2022,11:56:07,0.877,2.0,3.771,0.013
16/05/2022,11:57:08,0.929,2.0,3.787,0.016
16/05/2022,11:59:08,1.023,2.0,3.82,0.033
16/05/2022,12:00:09,1.153,3.0,3.837,0.017
16/05/2022,12:01:07,1.063,2.0,3.859,0.022
16/05/2022,12:02:08,2.050,5.0,3.881,0.022
16/05/2022,12:03:08,2.123,5.0,3.916,0.035
16/05/2022,12:04:07,1.116,3.0,3.942,0.026
16/05/2022,12:05:08,0.886,2.0,3.959,0.017
16/05/2022,12:06:07,0.734,2.0,3.972,0.013
16/05/2022,12:07:08,0.771,2.0,3.984,0.012
16/05/2022,12:09:09,0.748,2.0,4.01,0.026
16/05/2022,12:10:16,0.765,2.0,4.024,0.014
16/05/2022,12:12:09,0.647,1.0,4.047,0.023
16/05/2022,12:13:08,0.508,1.0,4.057,0.01
16/05/2022,12:15:09,0.429,1.0,4.071,0.014
16/05/2022,12:16:07,0.481,1.0,4.079,0.008
16/05/2022,12:17:08,0.609,1.0,4.088,0.009
16/05/2022,12:18:08,0.880,2.0,4.1,0.012
16/05/2022,12:19:07,1.123,3.0,4.116,0.016
16/05/2022,12:20:16,1.606,4.0,4.144,0.028
16/05/2022,12:22:09,2.111,5.0,4.207,0.063
16/05/2022,12:24:17,1.464,3.0,4.276,0.069
16/05/2022,12:26:09,1.184,3.0,4.32,0.044
16/05/2022,12:27:08,1.237,3.0,4.34,0.02
16/05/2022,12:28:08,1.829,4.0,4.363,0.023
16/05/2022,12:29:09,1.582,4.0,4.396,0.033
16/05/2022,12:31:09,1.245,3.0,4.44,0.044
16/05/2022,12:32:08,2.155,5.0,4.465,0.025
16/05/2022,12:33:09,1.369,3.0,4.498,0.033
16/05/2022,12:34:08,1.032,2.0,4.516,0.018
16/05/2022,12:35:08,1.048,2.0,4.533,0.017
16/05/2022,12:36:07,1.014,2.0,4.55,0.017
16/05/2022,12:37:08,1.296,3.0,4.567,0.017
16/05/2022,12:38:09,1.186,3.0,4.594,0.027